Time,TemperatureF,DewpointF,PressureIn,WindDirection,WindDirectionDegrees,WindSpeedMPH,WindSpeedGustMPH,Humidity,HourlyPrecipIn,Conditions,Clouds,dailyrainin,SoftwareType,DateUTC
2013-10-27 00:01:00,51.3,28.4,29.29,SE,143,9.8,9.8,41,0.00,,---,0.00,VWS V14.01,2013-10-27 04:01:00,
2013-10-27 00:06:00,51.1,28.2,29.29,North,8,4.5,5.4,41,0.00,,---,0.00,VWS V14.01,2013-10-27 04:06:00,
2013-10-27 00:11:00,51.1,28.2,29.29,SSW,201,0.0,0.0,41,0.00,,---,0.00,VWS V14.01,2013-10-27 04:11:00,
2013-10-27 00:16:00,51.1,28.2,29.29,SSW,193,5.4,5.4,41,0.00,,---,0.00,VWS V14.01,2013-10-27 04:16:00,
2013-10-27 00:21:00,51.1,28.2,29.29,WSW,243,4.5,4.5,41,0.00,,---,0.00,VWS V14.01,2013-10-27 04:21:00,
2013-10-27 00:26:00,50.9,28.1,29.29,West,275,0.0,0.0,41,0.00,,---,0.00,VWS V14.01,2013-10-27 04:26:00,
2013-10-27 00:31:00,50.7,27.9,29.29,SE,143,5.4,5.4,41,0.00,,---,0.00,VWS V14.01,2013-10-27 04:31:00,
2013-10-27 00:36:00,50.9,28.1,29.29,WNW,294,5.4,7.2,41,0.00,,---,0.00,VWS V14.01,2013-10-27 04:36:00,
2013-10-27 00:41:00,50.9,28.1,29.29,SW,226,0.0,9.8,41,0.00,,---,0.00,VWS V14.01,2013-10-27 04:41:00,
2013-10-27 00:46:00,50.9,28.1,29.29,WNW,291,6.3,6.3,41,0.00,,---,0.00,VWS V14.01,2013-10-27 04:46:00,
2013-10-27 00:51:00,50.9,28.1,29.29,South,172,6.3,6.3,41,0.00,,---,0.00,VWS V14.01,2013-10-27 04:51:00,
2013-10-27 00:56:00,50.7,27.9,29.29,South,189,4.5,4.5,41,0.00,,---,0.00,VWS V14.01,2013-10-27 04:56:00,
2013-10-27 01:01:00,50.7,27.9,29.29,WNW,290,0.0,0.0,41,0.00,,---,0.00,VWS V14.01,2013-10-27 05:01:00,
2013-10-27 01:06:00,50.7,27.9,29.29,WSW,254,0.0,0.0,41,0.00,,---,0.00,VWS V14.01,2013-10-27 05:06:00,
2013-10-27 01:11:00,50.5,27.7,29.29,WSW,248,0.0,0.0,41,0.00,,---,0.00,VWS V14.01,2013-10-27 05:11:00,
2013-10-27 01:16:00,50.5,27.7,29.29,WNW,286,0.0,0.0,41,0.00,,---,0.00,VWS V14.01,2013-10-27 05:16:00,
2013-10-27 01:21:00,50.4,27.6,29.29,NW,307,5.4,5.4,41,0.00,,---,0.00,VWS V14.01,2013-10-27 05:21:00,
2013-10-27 01:26:00,50.4,27.6,29.26,West,275,0.0,0.0,41,0.00,,---,0.00,VWS V14.01,2013-10-27 05:26:00,
2013-10-27 01:31:00,50.2,27.4,29.26,WNW,299,0.0,0.0,41,0.00,,---,0.00,VWS V14.01,2013-10-27 05:31:00,
2013-10-27 01:36:00,50.2,27.4,29.26,WNW,292,0.0,0.0,41,0.00,,---,0.00,VWS V14.01,2013-10-27 05:36:00,
2013-10-27 01:41:00,50.0,27.2,29.26,WNW,292,0.0,0.0,41,0.00,,---,0.00,VWS V14.01,2013-10-27 05:41:00,
2013-10-27 01:46:00,49.8,27.1,29.26,NW,304,0.0,6.3,41,0.00,,---,0.00,VWS V14.01,2013-10-27 05:46:00,
2013-10-27 01:51:00,49.6,26.9,29.26,NW,304,0.0,0.0,41,0.00,,---,0.00,VWS V14.01,2013-10-27 05:51:00,
2013-10-27 01:56:00,49.6,26.9,29.26,WNW,303,5.4,5.4,41,0.00,,---,0.00,VWS V14.01,2013-10-27 05:56:00,
2013-10-27 02:01:00,49.8,27.1,29.26,WNW,292,5.4,5.4,41,0.00,,---,0.00,VWS V14.01,2013-10-27 06:01:00,
2013-10-27 02:06:00,50.0,27.2,29.26,WNW,298,5.4,10.7,41,0.00,,---,0.00,VWS V14.01,2013-10-27 06:06:00,
2013-10-27 02:11:00,50.0,27.2,29.26,West,281,0.0,7.2,41,0.00,,---,0.00,VWS V14.01,2013-10-27 06:11:00,
2013-10-27 02:16:00,49.8,27.1,29.26,SSW,203,0.0,0.0,41,0.00,,---,0.00,VWS V14.01,2013-10-27 06:16:00,
2013-10-27 02:21:00,49.6,26.9,29.26,NNE,31,0.0,0.0,41,0.00,,---,0.00,VWS V14.01,2013-10-27 06:21:00,
2013-10-27 02:26:00,49.5,26.8,29.26,WNW,293,0.0,0.0,41,0.00,,---,0.00,VWS V14.01,2013-10-27 06:26:00,
2013-10-27 02:31:00,49.5,26.8,29.26,SW,231,0.0,0.0,41,0.00,,---,0.00,VWS V14.01,2013-10-27 06:31:00,
2013-10-27 02:36:00,49.5,26.8,29.26,SW,225,0.0,0.0,41,0.00,,---,0.00,VWS V14.01,2013-10-27 06:36:00,
2013-10-27 02:41:00,49.5,26.8,29.26,West,274,0.0,0.0,41,0.00,,---,0.00,VWS V14.01,2013-10-27 06:41:00,
2013-10-27 02:46:00,49.3,26.6,29.26,NW,309,0.0,5.4,41,0.00,,---,0.00,VWS V14.01,2013-10-27 06:46:00,
2013-10-27 02:51:00,49.1,26.4,29.26,NNW,333,8.9,8.9,41,0.00,,---,0.00,VWS V14.01,2013-10-27 06:51:00,
2013-10-27 02:56:00,48.7,26.1,29.26,North,353,10.7,10.7,41,0.00,,---,0.00,VWS V14.01,2013-10-27 06:56:00,
2013-10-27 03:01:00,48.7,26.1,29.26,WNW,287,0.0,7.2,41,0.00,,---,0.00,VWS V14.01,2013-10-27 07:01:00,
2013-10-27 03:06:00,48.4,25.8,29.26,West,280,0.0,0.0,41,0.00,,---,0.00,VWS V14.01,2013-10-27 07:06:00,
2013-10-27 03:11:00,48.2,25.6,29.26,WNW,292,5.4,5.4,41,0.00,,---,0.00,VWS V14.01,2013-10-27 07:11:00,
2013-10-27 03:16:00,48.0,26.0,29.26,NW,311,6.3,6.3,42,0.00,,---,0.00,VWS V14.01,2013-10-27 07:16:00,
2013-10-27 03:21:00,48.2,25.6,29.23,WNW,295,6.3,6.3,41,0.00,,---,0.00,VWS V14.01,2013-10-27 07:21:00,
2013-10-27 03:26:00,48.0,26.0,29.23,WNW,300,0.0,0.0,42,0.00,,---,0.00,VWS V14.01,2013-10-27 07:26:00,
2013-10-27 03:31:00,47.8,25.9,29.23,WNW,298,7.2,7.2,42,0.00,,---,0.00,VWS V14.01,2013-10-27 07:31:00,
2013-10-27 03:36:00,47.5,25.5,29.23,WNW,298,9.8,9.8,42,0.00,,---,0.00,VWS V14.01,2013-10-27 07:36:00,
2013-10-27 03:41:00,47.5,25.5,29.23,NE,39,4.5,5.4,42,0.00,,---,0.00,VWS V14.01,2013-10-27 07:41:00,
2013-10-27 03:46:00,47.3,25.4,29.23,WNW,297,7.2,7.2,42,0.00,,---,0.00,VWS V14.01,2013-10-27 07:46:00,
2013-10-27 03:51:00,47.5,25.5,29.23,NW,304,7.2,10.7,42,0.00,,---,0.00,VWS V14.01,2013-10-27 07:51:00,
2013-10-27 03:56:00,47.3,26.5,29.23,West,269,11.6,11.6,44,0.00,,---,0.00,VWS V14.01,2013-10-27 07:56:00,
2013-10-27 04:01:00,47.1,26.3,29.23,WNW,294,0.0,0.0,44,0.00,,---,0.00,VWS V14.01,2013-10-27 08:01:00,
2013-10-27 04:06:00,46.9,26.2,29.23,WNW,294,0.0,0.0,44,0.00,,---,0.00,VWS V14.01,2013-10-27 08:06:00,
2013-10-27 04:11:00,46.9,26.2,29.23,NNW,342,0.0,0.0,44,0.00,,---,0.00,VWS V14.01,2013-10-27 08:11:00,
2013-10-27 04:16:00,45.7,26.6,29.23,NNW,340,0.0,5.4,47,0.00,,---,0.00,VWS V14.01,2013-10-27 08:16:00,
2013-10-27 04:21:00,45.3,26.8,29.23,West,267,0.0,0.0,48,0.00,,---,0.00,VWS V14.01,2013-10-27 08:21:00,
2013-10-27 04:26:00,45.3,26.8,29.23,NNW,344,0.0,0.0,48,0.00,,---,0.00,VWS V14.01,2013-10-27 08:26:00,
2013-10-27 04:30:00,43.7,28.2,29.23,SE,145,6.3,6.3,54,0.00,,---,0.00,VWS V14.01,2013-10-27 08:30:00,
2013-10-27 04:35:00,43.3,29.6,29.23,ESE,102,5.4,5.4,58,0.00,,---,0.00,VWS V14.01,2013-10-27 08:35:00,
2013-10-27 04:40:00,43.0,29.6,29.23,SE,143,0.0,0.0,59,0.00,,---,0.00,VWS V14.01,2013-10-27 08:40:00,
2013-10-27 04:45:00,43.0,30.9,29.23,SE,143,0.0,0.0,62,0.00,,---,0.00,VWS V14.01,2013-10-27 08:45:00,
2013-10-27 04:50:00,43.0,30.9,29.23,SE,143,0.0,0.0,62,0.00,,---,0.00,VWS V14.01,2013-10-27 08:50:00,
2013-10-27 04:55:00,42.6,32.1,29.23,SE,143,0.0,0.0,66,0.00,,---,0.00,VWS V14.01,2013-10-27 08:55:00,
2013-10-27 05:00:00,42.4,31.1,29.23,SE,143,0.0,0.0,64,0.00,,---,0.00,VWS V14.01,2013-10-27 09:00:00,
2013-10-27 05:05:00,42.4,31.9,29.23,SE,143,0.0,0.0,66,0.00,,---,0.00,VWS V14.01,2013-10-27 09:05:00,
2013-10-27 05:10:00,42.4,32.6,29.23,SE,143,0.0,0.0,68,0.00,,---,0.00,VWS V14.01,2013-10-27 09:10:00,
2013-10-27 05:15:00,42.3,31.0,29.23,SE,142,0.0,0.0,64,0.00,,---,0.00,VWS V14.01,2013-10-27 09:15:00,
2013-10-27 05:20:00,42.4,31.9,29.23,SE,142,0.0,0.0,66,0.00,,---,0.00,VWS V14.01,2013-10-27 09:20:00,
2013-10-27 05:25:00,42.4,32.6,29.23,SE,142,0.0,0.0,68,0.00,,---,0.00,VWS V14.01,2013-10-27 09:25:00,
2013-10-27 05:30:00,42.4,33.0,29.23,SE,142,0.0,0.0,69,0.00,,---,0.00,VWS V14.01,2013-10-27 09:30:00,
2013-10-27 05:35:00,42.4,33.0,29.23,SE,142,0.0,0.0,69,0.00,,---,0.00,VWS V14.01,2013-10-27 09:35:00,
2013-10-27 05:40:00,42.4,33.7,29.23,SE,142,0.0,0.0,71,0.00,,---,0.00,VWS V14.01,2013-10-27 09:40:00,
2013-10-27 05:45:00,42.4,33.7,29.23,SE,142,0.0,0.0,71,0.00,,---,0.00,VWS V14.01,2013-10-27 09:45:00,
2013-10-27 05:50:00,42.4,34.1,29.23,SE,142,0.0,0.0,72,0.00,,---,0.00,VWS V14.01,2013-10-27 09:50:00,
2013-10-27 05:55:00,42.4,34.1,29.23,SE,142,0.0,0.0,72,0.00,,---,0.00,VWS V14.01,2013-10-27 09:55:00,
2013-10-27 06:00:00,42.4,34.1,29.23,SE,142,0.0,0.0,72,0.00,,---,0.00,VWS V14.01,2013-10-27 10:00:00,
2013-10-27 06:05:00,42.4,34.4,29.23,SE,142,0.0,0.0,73,0.00,,---,0.00,VWS V14.01,2013-10-27 10:05:00,
2013-10-27 06:10:00,42.4,34.4,29.23,SE,142,0.0,0.0,73,0.00,,---,0.00,VWS V14.01,2013-10-27 10:10:00,
2013-10-27 06:15:00,42.3,34.6,29.23,SE,142,0.0,0.0,74,0.00,,---,0.00,VWS V14.01,2013-10-27 10:15:00,
2013-10-27 06:20:00,42.1,34.1,29.23,SE,142,0.0,0.0,73,0.00,,---,0.00,VWS V14.01,2013-10-27 10:20:00,
2013-10-27 06:25:00,42.1,33.7,29.23,SE,142,0.0,0.0,72,0.00,,---,0.00,VWS V14.01,2013-10-27 10:25:00,
2013-10-27 06:30:00,41.9,33.9,29.23,SE,142,0.0,0.0,73,0.00,,---,0.00,VWS V14.01,2013-10-27 10:30:00,
2013-10-27 06:35:00,41.5,31.0,29.23,SE,144,0.0,0.0,66,0.00,,---,0.00,VWS V14.01,2013-10-27 10:35:00,
2013-10-27 06:40:00,41.7,30.8,29.23,SE,145,0.0,0.0,65,0.00,,---,0.00,VWS V14.01,2013-10-27 10:40:00,
2013-10-27 06:45:00,42.1,32.7,29.23,SE,145,0.0,0.0,69,0.00,,---,0.00,VWS V14.01,2013-10-27 10:45:00,
2013-10-27 06:50:00,41.9,32.5,29.23,SE,145,0.0,0.0,69,0.00,,---,0.00,VWS V14.01,2013-10-27 10:50:00,
2013-10-27 06:55:00,41.7,32.0,29.23,SE,145,0.0,0.0,68,0.00,,---,0.00,VWS V14.01,2013-10-27 10:55:00,
2013-10-27 07:00:00,41.7,32.0,29.23,SE,145,0.0,0.0,68,0.00,,---,0.00,VWS V14.01,2013-10-27 11:00:00,
2013-10-27 07:05:00,41.5,31.4,29.26,SE,144,0.0,0.0,67,0.00,,---,0.00,VWS V14.01,2013-10-27 11:05:00,
2013-10-27 07:10:00,41.5,31.8,29.26,SE,145,0.0,0.0,68,0.00,,---,0.00,VWS V14.01,2013-10-27 11:10:00,
2013-10-27 07:15:00,41.4,30.1,29.26,SE,145,0.0,0.0,64,0.00,,---,0.00,VWS V14.01,2013-10-27 11:15:00,
2013-10-27 07:20:00,41.2,29.9,29.26,SE,145,0.0,0.0,64,0.00,,---,0.00,VWS V14.01,2013-10-27 11:20:00,
2013-10-27 07:25:00,41.2,29.9,29.26,SE,145,0.0,0.0,64,0.00,,---,0.00,VWS V14.01,2013-10-27 11:25:00,
2013-10-27 07:30:00,41.2,30.7,29.26,SE,145,0.0,0.0,66,0.00,,---,0.00,VWS V14.01,2013-10-27 11:30:00,
2013-10-27 07:35:00,41.0,30.5,29.26,SE,145,0.0,0.0,66,0.00,,---,0.00,VWS V14.01,2013-10-27 11:35:00,
2013-10-27 07:40:00,41.0,29.8,29.26,SE,145,0.0,0.0,64,0.00,,---,0.00,VWS V14.01,2013-10-27 11:40:00,
2013-10-27 07:45:00,41.0,29.8,29.26,SE,145,0.0,0.0,64,0.00,,---,0.00,VWS V14.01,2013-10-27 11:45:00,
2013-10-27 07:50:00,41.2,30.3,29.26,SE,145,0.0,0.0,65,0.00,,---,0.00,VWS V14.01,2013-10-27 11:50:00,
2013-10-27 07:55:00,41.2,31.1,29.26,SE,145,0.0,0.0,67,0.00,,---,0.00,VWS V14.01,2013-10-27 11:55:00,
2013-10-27 08:00:00,41.2,28.4,29.29,SE,145,0.0,0.0,60,0.00,,---,0.00,VWS V14.01,2013-10-27 12:00:00,
2013-10-27 08:05:00,41.5,28.7,29.29,SE,145,0.0,0.0,60,0.00,,---,0.00,VWS V14.01,2013-10-27 12:05:00,
2013-10-27 08:10:00,41.9,28.6,29.29,SE,145,0.0,0.0,59,0.00,,---,0.00,VWS V14.01,2013-10-27 12:10:00,
2013-10-27 08:15:00,42.1,29.2,29.29,SE,145,0.0,0.0,60,0.00,,---,0.00,VWS V14.01,2013-10-27 12:15:00,
2013-10-27 08:20:00,42.3,29.0,29.29,SE,145,0.0,0.0,59,0.00,,---,0.00,VWS V14.01,2013-10-27 12:20:00,
2013-10-27 08:25:00,42.3,28.5,29.29,SSE,148,0.0,0.0,58,0.00,,---,0.00,VWS V14.01,2013-10-27 12:25:00,
2013-10-27 08:30:00,42.4,28.3,29.29,SSE,148,0.0,0.0,57,0.00,,---,0.00,VWS V14.01,2013-10-27 12:30:00,
2013-10-27 08:31:00,42.4,28.3,29.29,SSE,148,0.0,0.0,57,0.00,,---,0.00,VWS V14.01,2013-10-27 12:31:00,
2013-10-27 08:36:00,42.8,27.8,29.29,SSE,148,0.0,0.0,55,0.00,,---,0.00,VWS V14.01,2013-10-27 12:36:00,
2013-10-27 08:41:00,43.0,29.2,29.29,SSE,148,0.0,0.0,58,0.00,,---,0.00,VWS V14.01,2013-10-27 12:41:00,
2013-10-27 08:46:00,43.2,28.5,29.29,SSE,148,0.0,0.0,56,0.00,,---,0.00,VWS V14.01,2013-10-27 12:46:00,
2013-10-27 08:51:00,43.2,28.5,29.29,SSE,148,0.0,0.0,56,0.00,,---,0.00,VWS V14.01,2013-10-27 12:51:00,
2013-10-27 08:56:00,43.5,27.1,29.29,SSE,148,0.0,0.0,52,0.00,,---,0.00,VWS V14.01,2013-10-27 12:56:00,
2013-10-27 09:01:00,43.5,28.0,29.29,SE,146,0.0,0.0,54,0.00,,---,0.00,VWS V14.01,2013-10-27 13:01:00,
2013-10-27 09:06:00,43.9,27.9,29.29,SE,146,0.0,0.0,53,0.00,,---,0.00,VWS V14.01,2013-10-27 13:06:00,
2013-10-27 09:11:00,44.2,26.8,29.29,SE,146,0.0,6.3,50,0.00,,---,0.00,VWS V14.01,2013-10-27 13:11:00,
2013-10-27 09:16:00,44.4,27.4,29.29,SE,146,0.0,0.0,51,0.00,,---,0.00,VWS V14.01,2013-10-27 13:16:00,
2013-10-27 09:21:00,45.0,27.0,29.29,SE,146,0.0,0.0,49,0.00,,---,0.00,VWS V14.01,2013-10-27 13:21:00,
2013-10-27 09:26:00,45.3,26.8,29.29,SE,146,5.4,5.4,48,0.00,,---,0.00,VWS V14.01,2013-10-27 13:26:00,
2013-10-27 09:31:00,45.5,27.0,29.29,WNW,290,0.0,0.0,48,0.00,,---,0.00,VWS V14.01,2013-10-27 13:31:00,
2013-10-27 09:36:00,46.0,27.5,29.29,WSW,239,0.0,5.4,48,0.00,,---,0.00,VWS V14.01,2013-10-27 13:36:00,
2013-10-27 09:41:00,46.4,27.3,29.29,WNW,290,0.0,7.2,47,0.00,,---,0.00,VWS V14.01,2013-10-27 13:41:00,
2013-10-27 09:46:00,47.1,27.9,29.29,NW,320,5.4,6.3,47,0.00,,---,0.00,VWS V14.01,2013-10-27 13:46:00,
2013-10-27 09:51:00,47.3,28.1,29.32,NW,320,0.0,0.0,47,0.00,,---,0.00,VWS V14.01,2013-10-27 13:51:00,
2013-10-27 09:56:00,47.7,28.4,29.32,NW,319,0.0,7.2,47,0.00,,---,0.00,VWS V14.01,2013-10-27 13:56:00,
2013-10-27 10:00:00,47.7,26.8,29.32,WNW,286,8.1,8.1,44,0.00,,---,0.00,VWS V14.01,2013-10-27 14:00:00,
2013-10-27 10:05:00,47.7,26.8,29.29,NNW,340,8.1,8.1,44,0.00,,---,0.00,VWS V14.01,2013-10-27 14:05:00,
2013-10-27 10:10:00,47.7,26.8,29.29,NW,318,8.1,8.1,44,0.00,,---,0.00,VWS V14.01,2013-10-27 14:10:00,
2013-10-27 10:15:00,48.0,28.8,29.29,North,1,0.0,0.0,47,0.00,,---,0.00,VWS V14.01,2013-10-27 14:15:00,
2013-10-27 10:20:00,48.2,27.3,29.29,NW,318,6.3,10.7,44,0.00,,---,0.00,VWS V14.01,2013-10-27 14:20:00,
2013-10-27 10:25:00,48.7,27.8,29.29,NW,310,9.8,9.8,44,0.00,,---,0.00,VWS V14.01,2013-10-27 14:25:00,
2013-10-27 10:30:00,50.7,27.9,29.29,NW,320,8.1,8.1,41,0.00,,---,0.00,VWS V14.01,2013-10-27 14:30:00,
2013-10-27 10:35:00,53.8,30.0,29.29,WNW,302,6.3,7.2,40,0.00,,---,0.00,VWS V14.01,2013-10-27 14:35:00,
2013-10-27 10:40:00,55.0,31.2,29.29,WNW,297,6.3,6.3,40,0.00,,---,0.00,VWS V14.01,2013-10-27 14:40:00,
2013-10-27 10:45:00,53.1,30.0,29.29,NW,325,0.0,5.4,41,0.00,,---,0.00,VWS V14.01,2013-10-27 14:45:00,
2013-10-27 10:50:00,52.9,29.8,29.32,NW,304,0.0,0.0,41,0.00,,---,0.00,VWS V14.01,2013-10-27 14:50:00,
2013-10-27 10:55:00,52.5,29.5,29.32,NNW,338,4.5,6.3,41,0.00,,---,0.00,VWS V14.01,2013-10-27 14:55:00,
2013-10-27 11:00:00,54.1,30.4,29.32,NNE,19,8.1,8.1,40,0.00,,---,0.00,VWS V14.01,2013-10-27 15:00:00,
2013-10-27 11:05:00,53.1,30.0,29.32,North,2,11.6,11.6,41,0.00,,---,0.00,VWS V14.01,2013-10-27 15:05:00,
2013-10-27 11:10:00,51.8,28.9,29.32,NNE,18,5.4,8.1,41,0.00,,---,0.00,VWS V14.01,2013-10-27 15:10:00,
2013-10-27 11:15:00,51.8,28.9,29.32,North,357,0.0,0.0,41,0.00,,---,0.00,VWS V14.01,2013-10-27 15:15:00,
2013-10-27 11:20:00,51.6,28.7,29.32,North,357,10.7,10.7,41,0.00,,---,0.00,VWS V14.01,2013-10-27 15:20:00,
2013-10-27 11:25:00,52.2,29.2,29.32,WNW,301,7.2,7.2,41,0.00,,---,0.00,VWS V14.01,2013-10-27 15:25:00,
2013-10-27 11:30:00,52.9,29.8,29.32,NW,322,8.1,8.1,41,0.00,,---,0.00,VWS V14.01,2013-10-27 15:30:00,
2013-10-27 11:35:00,53.8,30.0,29.32,WNW,295,6.3,11.6,40,0.00,,---,0.00,VWS V14.01,2013-10-27 15:35:00,
2013-10-27 11:40:00,53.2,30.2,29.32,West,280,0.0,5.4,41,0.00,,---,0.00,VWS V14.01,2013-10-27 15:40:00,
2013-10-27 11:45:00,52.9,29.8,29.32,WNW,299,7.2,7.2,41,0.00,,---,0.00,VWS V14.01,2013-10-27 15:45:00,
2013-10-27 11:50:00,53.6,28.6,29.32,NNW,339,5.4,15.2,38,0.00,,---,0.00,VWS V14.01,2013-10-27 15:50:00,
2013-10-27 11:55:00,53.6,28.6,29.32,NNW,337,4.5,5.4,38,0.00,,---,0.00,VWS V14.01,2013-10-27 15:55:00,
2013-10-27 12:00:00,53.2,30.2,29.32,North,357,6.3,6.3,41,0.00,,---,0.00,VWS V14.01,2013-10-27 16:00:00,
2013-10-27 12:05:00,53.4,30.3,29.32,NNW,330,0.0,0.0,41,0.00,,---,0.00,VWS V14.01,2013-10-27 16:05:00,
2013-10-27 12:10:00,54.5,30.7,29.32,North,353,5.4,5.4,40,0.00,,---,0.00,VWS V14.01,2013-10-27 16:10:00,
2013-10-27 12:15:00,59.0,32.8,29.32,NNW,345,16.1,16.1,37,0.00,,---,0.00,VWS V14.01,2013-10-27 16:15:00,
2013-10-27 12:20:00,57.4,31.3,29.29,North,353,0.0,0.0,37,0.00,,---,0.00,VWS V14.01,2013-10-27 16:20:00,
2013-10-27 12:25:00,55.9,30.1,29.29,West,275,12.5,12.5,37,0.00,,---,0.00,VWS V14.01,2013-10-27 16:25:00,
2013-10-27 12:30:00,54.0,29.0,29.29,NNW,348,6.3,7.2,38,0.00,,---,0.00,VWS V14.01,2013-10-27 16:30:00,
2013-10-27 12:35:00,54.5,29.4,29.29,NNE,23,6.3,6.3,38,0.00,,---,0.00,VWS V14.01,2013-10-27 16:35:00,
2013-10-27 12:40:00,54.0,29.0,29.29,North,357,6.3,8.1,38,0.00,,---,0.00,VWS V14.01,2013-10-27 16:40:00,
2013-10-27 12:45:00,53.8,28.8,29.29,North,0,7.2,7.2,38,0.00,,---,0.00,VWS V14.01,2013-10-27 16:45:00,
2013-10-27 12:50:00,54.1,29.1,29.29,NW,310,5.4,11.6,38,0.00,,---,0.00,VWS V14.01,2013-10-27 16:50:00,
2013-10-27 12:55:00,55.0,29.9,29.29,NW,317,8.1,11.6,38,0.00,,---,0.00,VWS V14.01,2013-10-27 16:55:00,
2013-10-27 13:00:00,55.4,29.6,29.29,WSW,244,6.3,6.3,37,0.00,,---,0.00,VWS V14.01,2013-10-27 17:00:00,
2013-10-27 13:05:00,57.2,31.2,29.29,North,353,8.9,8.9,37,0.00,,---,0.00,VWS V14.01,2013-10-27 17:05:00,
2013-10-27 13:10:00,64.0,36.6,29.29,North,353,8.1,8.1,36,0.00,,---,0.00,VWS V14.01,2013-10-27 17:10:00,
2013-10-27 13:15:00,67.5,38.9,29.29,ENE,72,10.7,10.7,35,0.00,,---,0.00,VWS V14.01,2013-10-27 17:15:00,
2013-10-27 13:20:00,66.6,38.1,29.29,NNW,337,7.2,7.2,35,0.00,,---,0.00,VWS V14.01,2013-10-27 17:20:00,
2013-10-27 13:25:00,61.0,33.9,29.29,North,353,6.3,6.3,36,0.00,,---,0.00,VWS V14.01,2013-10-27 17:25:00,
2013-10-27 13:30:00,59.9,33.6,29.29,NNW,327,8.1,11.6,37,0.00,,---,0.00,VWS V14.01,2013-10-27 17:30:00,
2013-10-27 13:35:00,59.2,33.0,29.29,NW,321,6.3,6.3,37,0.00,,---,0.00,VWS V14.01,2013-10-27 17:35:00,
2013-10-27 13:40:00,58.5,32.3,29.29,NW,323,10.7,10.7,37,0.00,,---,0.00,VWS V14.01,2013-10-27 17:40:00,
2013-10-27 13:45:00,57.9,31.8,29.29,NW,309,7.2,7.2,37,0.00,,---,0.00,VWS V14.01,2013-10-27 17:45:00,
2013-10-27 13:50:00,59.5,33.3,29.29,North,0,8.1,11.6,37,0.00,,---,0.00,VWS V14.01,2013-10-27 17:50:00,
2013-10-27 13:55:00,58.6,32.5,29.29,WNW,290,6.3,6.3,37,0.00,,---,0.00,VWS V14.01,2013-10-27 17:55:00,
2013-10-27 14:00:00,57.7,31.7,29.29,NNW,328,5.4,5.4,37,0.00,,---,0.00,VWS V14.01,2013-10-27 18:00:00,
2013-10-27 14:05:00,56.8,30.9,29.29,North,353,6.3,8.1,37,0.00,,---,0.00,VWS V14.01,2013-10-27 18:05:00,
2013-10-27 14:10:00,57.6,31.5,29.29,North,10,0.0,0.0,37,0.00,,---,0.00,VWS V14.01,2013-10-27 18:10:00,
2013-10-27 14:15:00,57.9,31.8,29.29,NW,320,0.0,0.0,37,0.00,,---,0.00,VWS V14.01,2013-10-27 18:15:00,
2013-10-27 14:20:00,57.9,31.8,29.29,NW,309,0.0,7.2,37,0.00,,---,0.00,VWS V14.01,2013-10-27 18:20:00,
2013-10-27 14:25:00,57.2,31.2,29.29,NNW,338,8.1,8.1,37,0.00,,---,0.00,VWS V14.01,2013-10-27 18:25:00,
2013-10-27 14:30:00,56.5,30.5,29.29,West,264,7.2,7.2,37,0.00,,---,0.00,VWS V14.01,2013-10-27 18:30:00,
2013-10-27 14:35:00,55.8,29.9,29.29,NW,320,5.4,5.4,37,0.00,,---,0.00,VWS V14.01,2013-10-27 18:35:00,
2013-10-27 14:40:00,55.4,29.6,29.29,West,279,0.0,9.8,37,0.00,,---,0.00,VWS V14.01,2013-10-27 18:40:00,
2013-10-27 14:45:00,54.5,29.4,29.29,NNW,341,0.0,8.1,38,0.00,,---,0.00,VWS V14.01,2013-10-27 18:45:00,
2013-10-27 14:50:00,54.3,29.3,29.29,WNW,300,6.3,6.3,38,0.00,,---,0.00,VWS V14.01,2013-10-27 18:50:00,
2013-10-27 14:55:00,54.3,29.3,29.29,NW,324,0.0,0.0,38,0.00,,---,0.00,VWS V14.01,2013-10-27 18:55:00,
2013-10-27 15:00:00,54.3,29.3,29.29,NW,309,7.2,7.2,38,0.00,,---,0.00,VWS V14.01,2013-10-27 19:00:00,
2013-10-27 15:05:00,54.1,29.1,29.29,NNW,340,0.0,0.0,38,0.00,,---,0.00,VWS V14.01,2013-10-27 19:05:00,
2013-10-27 15:10:00,54.1,29.1,29.29,NW,315,7.2,7.2,38,0.00,,---,0.00,VWS V14.01,2013-10-27 19:10:00,
2013-10-27 15:15:00,54.1,29.1,29.29,NNW,330,6.3,6.3,38,0.00,,---,0.00,VWS V14.01,2013-10-27 19:15:00,
2013-10-27 15:20:00,54.1,29.1,29.29,NW,321,7.2,7.2,38,0.00,,---,0.00,VWS V14.01,2013-10-27 19:20:00,
2013-10-27 15:25:00,54.1,29.1,29.29,NNW,327,6.3,6.3,38,0.00,,---,0.00,VWS V14.01,2013-10-27 19:25:00,
2013-10-27 15:30:00,53.6,28.6,29.29,NNW,327,6.3,6.3,38,0.00,,---,0.00,VWS V14.01,2013-10-27 19:30:00,
2013-10-27 15:35:00,53.4,28.5,29.29,NNW,335,0.0,5.4,38,0.00,,---,0.00,VWS V14.01,2013-10-27 19:35:00,
2013-10-27 15:40:00,53.6,28.6,29.29,North,353,0.0,0.0,38,0.00,,---,0.00,VWS V14.01,2013-10-27 19:40:00,
2013-10-27 15:45:00,54.1,29.1,29.29,NW,324,5.4,5.4,38,0.00,,---,0.00,VWS V14.01,2013-10-27 19:45:00,
2013-10-27 15:50:00,54.5,29.4,29.29,WNW,290,7.2,7.2,38,0.00,,---,0.00,VWS V14.01,2013-10-27 19:50:00,
2013-10-27 15:55:00,54.9,29.8,29.29,NNE,22,7.2,7.2,38,0.00,,---,0.00,VWS V14.01,2013-10-27 19:55:00,
2013-10-27 16:00:00,54.9,29.8,29.29,NW,304,6.3,6.3,38,0.00,,---,0.00,VWS V14.01,2013-10-27 20:00:00,
2013-10-27 16:05:00,54.9,29.8,29.29,NNW,327,5.4,5.4,38,0.00,,---,0.00,VWS V14.01,2013-10-27 20:05:00,
2013-10-27 16:10:00,54.7,29.6,29.29,NNW,338,4.5,4.5,38,0.00,,---,0.00,VWS V14.01,2013-10-27 20:10:00,
2013-10-27 16:15:00,54.5,29.4,29.29,West,273,5.4,5.4,38,0.00,,---,0.00,VWS V14.01,2013-10-27 20:15:00,
2013-10-27 16:20:00,54.3,29.3,29.29,NNW,335,8.1,8.1,38,0.00,,---,0.00,VWS V14.01,2013-10-27 20:20:00,
2013-10-27 16:25:00,54.0,29.0,29.29,NNW,333,6.3,7.2,38,0.00,,---,0.00,VWS V14.01,2013-10-27 20:25:00,
2013-10-27 16:30:00,53.2,28.3,29.32,NNW,343,8.1,8.1,38,0.00,,---,0.00,VWS V14.01,2013-10-27 20:30:00,
2013-10-27 16:35:00,53.1,28.1,29.32,NNE,20,10.7,10.7,38,0.00,,---,0.00,VWS V14.01,2013-10-27 20:35:00,
2013-10-27 16:40:00,52.9,28.0,29.32,NW,310,10.7,10.7,38,0.00,,---,0.00,VWS V14.01,2013-10-27 20:40:00,
2013-10-27 16:45:00,52.7,27.8,29.32,NW,317,5.4,5.4,38,0.00,,---,0.00,VWS V14.01,2013-10-27 20:45:00,
2013-10-27 16:50:00,52.7,27.8,29.32,NNW,330,10.7,10.7,38,0.00,,---,0.00,VWS V14.01,2013-10-27 20:50:00,
2013-10-27 16:55:00,52.7,27.8,29.32,NW,324,10.7,10.7,38,0.00,,---,0.00,VWS V14.01,2013-10-27 20:55:00,
2013-10-27 17:00:00,52.7,27.8,29.32,NNW,338,9.8,9.8,38,0.00,,---,0.00,VWS V14.01,2013-10-27 21:00:00,
2013-10-27 17:05:00,52.9,28.0,29.32,NNW,335,0.0,0.0,38,0.00,,---,0.00,VWS V14.01,2013-10-27 21:05:00,
2013-10-27 17:10:00,52.9,28.0,29.32,NNW,329,0.0,8.9,38,0.00,,---,0.00,VWS V14.01,2013-10-27 21:10:00,
2013-10-27 17:15:00,52.7,27.8,29.32,NW,318,8.1,8.1,38,0.00,,---,0.00,VWS V14.01,2013-10-27 21:15:00,
2013-10-27 17:20:00,52.5,27.7,29.32,NW,326,6.3,6.3,38,0.00,,---,0.00,VWS V14.01,2013-10-27 21:20:00,
2013-10-27 17:25:00,52.3,27.5,29.32,NW,326,0.0,0.0,38,0.00,,---,0.00,VWS V14.01,2013-10-27 21:25:00,
2013-10-27 17:30:00,51.6,27.5,29.32,NW,323,0.0,0.0,39,0.00,,---,0.00,VWS V14.01,2013-10-27 21:30:00,
2013-10-27 17:35:00,51.4,27.3,29.35,NW,308,5.4,5.4,39,0.00,,---,0.00,VWS V14.01,2013-10-27 21:35:00,
2013-10-27 17:40:00,51.3,27.2,29.35,NNW,342,0.0,0.0,39,0.00,,---,0.00,VWS V14.01,2013-10-27 21:40:00,
2013-10-27 17:45:00,50.7,26.7,29.35,WNW,291,6.3,6.3,39,0.00,,---,0.00,VWS V14.01,2013-10-27 21:45:00,
2013-10-27 17:50:00,50.7,26.7,29.35,NNW,332,6.3,6.3,39,0.00,,---,0.00,VWS V14.01,2013-10-27 21:50:00,
2013-10-27 17:55:00,50.4,26.4,29.35,North,353,7.2,7.2,39,0.00,,---,0.00,VWS V14.01,2013-10-27 21:55:00,
2013-10-27 18:00:00,50.2,26.2,29.35,WNW,301,0.0,0.0,39,0.00,,---,0.00,VWS V14.01,2013-10-27 22:00:00,
2013-10-27 18:05:00,49.8,25.9,29.35,NW,306,7.2,7.2,39,0.00,,---,0.00,VWS V14.01,2013-10-27 22:05:00,
2013-10-27 18:10:00,49.6,25.7,29.35,NNW,336,0.0,0.0,39,0.00,,---,0.00,VWS V14.01,2013-10-27 22:10:00,
2013-10-27 18:15:00,49.5,25.5,29.35,NNW,336,0.0,0.0,39,0.00,,---,0.00,VWS V14.01,2013-10-27 22:15:00,
2013-10-27 18:20:00,49.1,25.2,29.35,NNW,327,0.0,0.0,39,0.00,,---,0.00,VWS V14.01,2013-10-27 22:20:00,
2013-10-27 18:25:00,48.9,25.1,29.35,NNW,329,5.4,5.4,39,0.00,,---,0.00,VWS V14.01,2013-10-27 22:25:00,
2013-10-27 18:30:00,48.6,24.7,29.35,NW,314,8.1,8.1,39,0.00,,---,0.00,VWS V14.01,2013-10-27 22:30:00,
2013-10-27 18:35:00,48.6,24.7,29.38,NW,320,7.2,7.2,39,0.00,,---,0.00,VWS V14.01,2013-10-27 22:35:00,
2013-10-27 18:40:00,48.4,24.6,29.38,NW,319,0.0,5.4,39,0.00,,---,0.00,VWS V14.01,2013-10-27 22:40:00,
2013-10-27 18:45:00,48.2,24.4,29.38,NW,319,0.0,0.0,39,0.00,,---,0.00,VWS V14.01,2013-10-27 22:45:00,
2013-10-27 18:50:00,47.8,24.1,29.38,NW,319,0.0,0.0,39,0.00,,---,0.00,VWS V14.01,2013-10-27 22:50:00,
2013-10-27 18:55:00,47.7,23.9,29.38,NW,319,4.5,4.5,39,0.00,,---,0.00,VWS V14.01,2013-10-27 22:55:00,
2013-10-27 19:00:00,47.5,23.8,29.38,NW,319,0.0,0.0,39,0.00,,---,0.00,VWS V14.01,2013-10-27 23:00:00,
2013-10-27 19:05:00,47.3,23.6,29.38,NW,319,0.0,0.0,39,0.00,,---,0.00,VWS V14.01,2013-10-27 23:05:00,
2013-10-27 19:10:00,47.1,23.5,29.38,NW,319,0.0,0.0,39,0.00,,---,0.00,VWS V14.01,2013-10-27 23:10:00,
2013-10-27 19:15:00,47.1,23.5,29.38,NW,320,0.0,0.0,39,0.00,,---,0.00,VWS V14.01,2013-10-27 23:15:00,
2013-10-27 19:20:00,46.9,23.3,29.41,NNW,329,0.0,0.0,39,0.00,,---,0.00,VWS V14.01,2013-10-27 23:20:00,
2013-10-27 19:25:00,46.6,23.0,29.41,NNW,329,0.0,0.0,39,0.00,,---,0.00,VWS V14.01,2013-10-27 23:25:00,
2013-10-27 19:30:00,46.4,22.8,29.41,NNW,329,0.0,0.0,39,0.00,,---,0.00,VWS V14.01,2013-10-27 23:30:00,
2013-10-27 19:35:00,46.2,23.2,29.41,NNW,329,0.0,0.0,40,0.00,,---,0.00,VWS V14.01,2013-10-27 23:35:00,
2013-10-27 19:40:00,46.0,23.1,29.41,NNW,329,0.0,0.0,40,0.00,,---,0.00,VWS V14.01,2013-10-27 23:40:00,
2013-10-27 19:45:00,46.0,23.1,29.41,NNW,329,0.0,0.0,40,0.00,,---,0.00,VWS V14.01,2013-10-27 23:45:00,
2013-10-27 19:50:00,45.9,22.9,29.41,NW,325,0.0,0.0,40,0.00,,---,0.00,VWS V14.01,2013-10-27 23:50:00,
2013-10-27 19:55:00,45.9,22.9,29.41,NW,321,4.5,4.5,40,0.00,,---,0.00,VWS V14.01,2013-10-27 23:55:00,
2013-10-27 20:00:00,46.0,23.1,29.41,NW,323,0.0,0.0,40,0.00,,---,0.00,VWS V14.01,2013-10-28 00:00:00,
2013-10-27 20:05:00,45.9,22.9,29.41,NW,323,0.0,0.0,40,0.00,,---,0.00,VWS V14.01,2013-10-28 00:05:00,
2013-10-27 20:10:00,45.7,22.8,29.41,NW,323,0.0,0.0,40,0.00,,---,0.00,VWS V14.01,2013-10-28 00:10:00,
2013-10-27 20:15:00,45.5,22.6,29.41,NW,323,0.0,0.0,40,0.00,,---,0.00,VWS V14.01,2013-10-28 00:15:00,
2013-10-27 20:20:00,45.3,22.4,29.41,NW,323,0.0,0.0,40,0.00,,---,0.00,VWS V14.01,2013-10-28 00:20:00,
2013-10-27 20:25:00,45.3,22.4,29.41,NW,323,0.0,0.0,40,0.00,,---,0.00,VWS V14.01,2013-10-28 00:25:00,
2013-10-27 20:30:00,45.1,22.3,29.44,NW,323,0.0,0.0,40,0.00,,---,0.00,VWS V14.01,2013-10-28 00:30:00,
2013-10-27 20:35:00,45.0,22.1,29.44,NW,323,0.0,0.0,40,0.00,,---,0.00,VWS V14.01,2013-10-28 00:35:00,
2013-10-27 20:40:00,44.6,21.8,29.44,NW,323,0.0,0.0,40,0.00,,---,0.00,VWS V14.01,2013-10-28 00:40:00,
2013-10-27 20:45:00,44.4,21.6,29.44,NW,323,0.0,0.0,40,0.00,,---,0.00,VWS V14.01,2013-10-28 00:45:00,
2013-10-27 20:50:00,44.2,21.5,29.44,NW,322,0.0,0.0,40,0.00,,---,0.00,VWS V14.01,2013-10-28 00:50:00,
2013-10-27 20:55:00,44.6,21.8,29.44,NW,322,0.0,0.0,40,0.00,,---,0.00,VWS V14.01,2013-10-28 00:55:00,
2013-10-27 21:00:00,44.6,21.8,29.44,NW,323,0.0,0.0,40,0.00,,---,0.00,VWS V14.01,2013-10-28 01:00:00,
2013-10-27 21:05:00,44.4,21.6,29.44,NW,322,0.0,0.0,40,0.00,,---,0.00,VWS V14.01,2013-10-28 01:05:00,
2013-10-27 21:10:00,43.7,21.0,29.44,NW,323,0.0,0.0,40,0.00,,---,0.00,VWS V14.01,2013-10-28 01:10:00,
2013-10-27 21:15:00,43.3,20.6,29.44,NW,322,0.0,0.0,40,0.00,,---,0.00,VWS V14.01,2013-10-28 01:15:00,
2013-10-27 21:20:00,43.0,20.3,29.44,NW,323,0.0,0.0,40,0.00,,---,0.00,VWS V14.01,2013-10-28 01:20:00,
2013-10-27 21:25:00,42.8,20.2,29.44,NW,323,0.0,0.0,40,0.00,,---,0.00,VWS V14.01,2013-10-28 01:25:00,
2013-10-27 21:30:00,42.4,21.5,29.44,NW,322,0.0,0.0,43,0.00,,---,0.00,VWS V14.01,2013-10-28 01:30:00,
2013-10-27 21:35:00,42.4,21.5,29.44,NW,323,0.0,0.0,43,0.00,,---,0.00,VWS V14.01,2013-10-28 01:35:00,
2013-10-27 21:40:00,42.4,21.5,29.44,NW,322,0.0,0.0,43,0.00,,---,0.00,VWS V14.01,2013-10-28 01:40:00,
2013-10-27 21:45:00,42.6,21.7,29.44,NW,322,0.0,0.0,43,0.00,,---,0.00,VWS V14.01,2013-10-28 01:45:00,
2013-10-27 21:50:00,42.8,21.9,29.47,NW,323,0.0,0.0,43,0.00,,---,0.00,VWS V14.01,2013-10-28 01:50:00,
2013-10-27 21:55:00,42.6,21.7,29.47,NW,322,0.0,0.0,43,0.00,,---,0.00,VWS V14.01,2013-10-28 01:55:00,
2013-10-27 22:00:00,42.6,21.7,29.47,NW,323,0.0,0.0,43,0.00,,---,0.00,VWS V14.01,2013-10-28 02:00:00,
2013-10-27 22:05:00,42.8,21.9,29.47,NW,322,0.0,0.0,43,0.00,,---,0.00,VWS V14.01,2013-10-28 02:05:00,
2013-10-27 22:10:00,42.8,21.9,29.47,NW,322,0.0,0.0,43,0.00,,---,0.00,VWS V14.01,2013-10-28 02:10:00,
2013-10-27 22:15:00,43.0,22.0,29.47,NW,323,0.0,0.0,43,0.00,,---,0.00,VWS V14.01,2013-10-28 02:15:00,
2013-10-27 22:20:00,43.0,22.0,29.47,NW,323,0.0,0.0,43,0.00,,---,0.00,VWS V14.01,2013-10-28 02:20:00,
2013-10-27 22:25:00,42.8,21.9,29.47,NW,322,0.0,0.0,43,0.00,,---,0.00,VWS V14.01,2013-10-28 02:25:00,
2013-10-27 22:30:00,42.8,21.9,29.47,NW,322,0.0,0.0,43,0.00,,---,0.00,VWS V14.01,2013-10-28 02:30:00,
2013-10-27 22:35:00,42.4,21.5,29.47,NW,326,4.5,4.5,43,0.00,,---,0.00,VWS V14.01,2013-10-28 02:35:00,
2013-10-27 22:40:00,42.4,21.5,29.50,NW,326,0.0,6.3,43,0.00,,---,0.00,VWS V14.01,2013-10-28 02:40:00,
2013-10-27 22:45:00,42.3,21.4,29.50,NW,326,8.1,8.1,43,0.00,,---,0.00,VWS V14.01,2013-10-28 02:45:00,
2013-10-27 22:50:00,42.1,21.2,29.50,NW,326,0.0,0.0,43,0.00,,---,0.00,VWS V14.01,2013-10-28 02:50:00,
2013-10-27 22:55:00,42.1,21.2,29.50,NW,326,0.0,0.0,43,0.00,,---,0.00,VWS V14.01,2013-10-28 02:55:00,
2013-10-27 23:00:00,41.9,21.0,29.50,NW,326,0.0,0.0,43,0.00,,---,0.00,VWS V14.01,2013-10-28 03:00:00,
2013-10-27 23:05:00,41.7,20.9,29.50,NW,326,0.0,0.0,43,0.00,,---,0.00,VWS V14.01,2013-10-28 03:05:00,
2013-10-27 23:10:00,41.5,20.7,29.50,NW,326,0.0,0.0,43,0.00,,---,0.00,VWS V14.01,2013-10-28 03:10:00,
2013-10-27 23:15:00,41.5,20.7,29.50,NW,326,0.0,0.0,43,0.00,,---,0.00,VWS V14.01,2013-10-28 03:15:00,
2013-10-27 23:20:00,41.2,20.4,29.50,NW,326,0.0,0.0,43,0.00,,---,0.00,VWS V14.01,2013-10-28 03:20:00,
2013-10-27 23:25:00,41.2,20.4,29.50,NW,326,0.0,0.0,43,0.00,,---,0.00,VWS V14.01,2013-10-28 03:25:00,
2013-10-27 23:30:00,41.0,20.2,29.50,NW,326,0.0,0.0,43,0.00,,---,0.00,VWS V14.01,2013-10-28 03:30:00,
2013-10-27 23:35:00,40.8,21.7,29.50,NW,326,0.0,0.0,46,0.00,,---,0.00,VWS V14.01,2013-10-28 03:35:00,
2013-10-27 23:40:00,40.8,21.7,29.50,NW,326,0.0,0.0,46,0.00,,---,0.00,VWS V14.01,2013-10-28 03:40:00,
2013-10-27 23:45:00,40.6,21.5,29.50,NW,326,0.0,0.0,46,0.00,,---,0.00,VWS V14.01,2013-10-28 03:45:00,
2013-10-27 23:50:00,40.6,21.5,29.50,North,0,6.3,6.3,46,0.00,,---,0.00,VWS V14.01,2013-10-28 03:50:00,
2013-10-27 23:55:00,40.6,21.5,29.50,NNW,341,0.0,0.0,46,0.00,,---,0.00,VWS V14.01,2013-10-28 03:55:00,